Flag for Vatican City State Weather past 2 weeks in Vatican City, Vatican City State

61 °F

Light rain. Passing clouds.

Feels Like: 61 °F
Forecast: 51 / 67 °F
Wind: 9 mph from Northeast

Location: Rome / Ciampino

Current Time: Oct 10, 2015 at 5:39:58 AM

Latest Report: Oct 10, 2015 at 4:50 AM

Visibility: 6 mi

Pressure: 29.71 "Hg

Humidity: 94%

Dew point: 59 °F

Location of Vatican CityLocation

Historic Weather in Vatican City — Graph


Vatican City temperature yesterday

Maximum temperature yesterday: 72 °F (at 1:50 PM)
Minimum temperature yesterday: 57 °F (at 3:50 AM)
Average temperature yesterday: 64 °F

Past Weeks' High & Low Weather Summary

High79 °F (Oct 6, 2:20 PM)100% (Sep 25, 3:20 AM)30.21 "Hg (Sep 25, 3:20 AM)
Low54 °F (Sep 30, 4:50 AM)41% (Sep 26, 4:20 PM)29.77 "Hg (Oct 7, 6:20 AM)
Average66 °F75%30.02 "Hg
* Reported Sep 25 2:50 AM — Oct 10 2:50 AM, Vatican City, Weather by CustomWeather, © 2015

Note: Actual official high and low records may vary slightly from our data, if they occured in-between our weather recording intervals... More about our weather records


Vatican City weather history for previous 24 hours

Time TempWeatherWind HumidityBarometerVisibility
2:50 AM
Sat, Oct 10
61 °FPassing clouds.9 mph94%29.77 "Hg6 mi
2:20 AM61 °FLight rain. Passing clouds.12 mph94%29.80 "Hg6 mi
1:50 AM61 °FLight rain. Passing clouds.9 mph88%29.80 "Hg6 mi
12:50 AM61 °FLight rain. Passing clouds.6 mph88%29.83 "HgN/A
12:20 AM63 °FLight rain. Passing clouds.8 mph83%29.86 "HgN/A
11:20 PM
Fri, Oct 9
63 °FLight rain. Passing clouds.7 mph83%29.86 "HgN/A
10:50 PM63 °FLight rain. Passing clouds.6 mph83%29.89 "HgN/A
10:20 PM63 °FLight rain. Passing clouds.5 mph83%29.89 "HgN/A
9:50 PM63 °FLight rain. Passing clouds.3 mph83%29.89 "HgN/A
9:20 PM64 °FPassing clouds.3 mph78%29.89 "HgN/A
8:50 PM64 °FLight rain. Passing clouds.2 mph83%29.89 "HgN/A
8:20 PM64 °FLight rain. Passing clouds.1 mph88%29.92 "HgN/A
7:50 PM64 °FLight rain. Passing clouds.3 mph83%29.89 "HgN/A
7:20 PM66 °FScattered clouds.3 mph73%29.89 "HgN/A
6:50 PM68 °FPassing clouds.1 mph69%29.89 "HgN/A
6:20 PM68 °FPassing clouds.1 mph69%29.92 "HgN/A
5:50 PM70 °FPassing clouds.2 mph60%29.92 "HgN/A
5:20 PM70 °FScattered clouds.1 mph64%29.92 "HgN/A
4:20 PM70 °FScattered clouds.3 mph60%29.95 "HgN/A
3:50 PM70 °FScattered clouds.5 mph60%29.92 "HgN/A
3:20 PM70 °FScattered clouds.5 mph60%29.95 "HgN/A
2:50 PM70 °FPassing clouds.7 mph64%29.95 "HgN/A
2:20 PM70 °FPassing clouds.7 mph64%29.95 "HgN/A
1:50 PM72 °FPassing clouds.6 mph61%29.98 "HgN/A
1:20 PM70 °FPassing clouds.7 mph60%29.98 "HgN/A
12:50 PM70 °FPassing clouds.5 mph60%29.98 "HgN/A
12:20 PM70 °FPassing clouds.6 mph60%29.98 "HgN/A
11:50 AM68 °FPassing clouds.3 mph69%29.98 "HgN/A
11:20 AM68 °FSunny.2 mph69%29.98 "Hg10 mi
10:50 AM68 °FSunny.2 mph69%30.01 "Hg10 mi
10:20 AM66 °FSunny.2 mph73%30.01 "Hg10 mi
9:50 AM64 °FPassing clouds.5 mph78%30.01 "HgN/A
9:20 AM63 °FSunny.5 mph83%30.01 "Hg10 mi
8:50 AM63 °FSunny.6 mph77%29.98 "Hg10 mi
8:20 AM61 °FSunny.6 mph83%29.98 "Hg10 mi
7:50 AM59 °FClear.6 mph88%29.98 "Hg10 mi
7:20 AM59 °FClear.6 mph88%29.98 "Hg10 mi
6:50 AM59 °FClear.7 mph88%29.98 "Hg10 mi
6:20 AM59 °FClear.5 mph88%29.98 "Hg10 mi
5:50 AM59 °FPassing clouds.6 mph94%29.98 "HgN/A
5:20 AM59 °FPassing clouds.6 mph94%29.98 "HgN/A
Weather by CustomWeather, © 2015

See weather overviewHow to use our weather pages